GW5123 Weather Reports


time (UTC)temp
C
wind
direction
speed
KPH
gust
KPH
rain 1hr
cm
rain 24hr
cm
rain mn
cm
humidity
%
barometer
mb
20260504033630 6 294 0.0 0.0 0.00 0.00 0.00 59 1014.9
20260504033127 6 310 0.0 0.0 0.00 0.00 0.00 59 1014.8
20260504032624 6 296 0.0 0.0 0.00 0.00 0.00 57 1014.8
20260504032120 6 298 0.0 0.0 0.00 0.00 0.00 56 1014.9
20260504031618 6 298 0.0 0.0 0.00 0.00 0.00 57 1015.0
20260504031113 6 296 0.0 0.0 0.00 0.00 0.00 56 1014.9
20260504030611 6 308 0.0 0.0 0.00 0.00 0.00 56 1015.0
20260504030108 7 325 0.0 0.0 0.00 0.00 0.00 59 1014.9
20260504025604 7 326 0.0 0.0 0.00 0.00 0.00 56 1014.8
20260504025101 7 300 0.0 0.0 0.00 0.00 0.00 57 1014.8
20260504024558 7 285 0.0 0.0 0.00 0.00 0.00 54 1014.8
20260504024055 7 284 0.0 0.0 0.00 0.00 0.00 56 1015.1
20260504023551 7 285 0.0 0.0 0.00 0.00 0.00 53 1015.1
20260504023047 7 285 0.0 0.0 0.00 0.00 0.00 54 1015.0
20260504022543 7 285 0.0 0.0 0.00 0.00 0.00 51 1014.9
20260504022040 7 285 0.0 0.0 0.00 0.00 0.00 55 1015.0
20260504021538 7 285 0.0 0.0 0.00 0.00 0.00 51 1015.0
20260504021034 7 278 0.0 0.0 0.00 0.00 0.00 52 1015.1
20260504020531 7 273 0.0 0.0 0.00 0.00 0.00 51 1014.9
20260504020028 8 270 0.0 0.0 0.00 0.00 0.00 52 1015.1
20260504015524 8 270 0.0 0.0 0.00 0.00 0.00 50 1015.2
20260504015020 8 269 0.0 0.0 0.00 0.00 0.00 49 1015.0
20260504014516 8 267 0.0 0.0 0.00 0.00 0.00 49 1014.9
20260504014014 8 268 0.0 0.0 0.00 0.00 0.00 48 1014.8
20260504013512 8 268 0.0 0.0 0.00 0.00 0.00 51 1014.8
20260504013009 8 268 0.0 0.0 0.00 0.00 0.00 50 1014.7
20260504012506 8 268 0.0 0.0 0.00 0.00 0.00 49 1014.8
20260504012004 8 270 0.0 0.0 0.00 0.00 0.00 49 1014.7
20260504011500 8 269 0.0 0.0 0.00 0.00 0.00 52 1014.9
20260504010955 8 269 0.0 0.0 0.00 0.00 0.00 50 1014.9
20260504010452 8 274 0.0 0.0 0.00 0.00 0.00 47 1014.7
20260504005948 8 262 0.0 0.0 0.00 0.00 0.00 49 1014.8
20260504005445 8 253 0.0 1.6 0.00 0.00 0.00 49 1014.5
20260504004942 8 220 0.0 0.0 0.00 0.00 0.00 48 1014.5
20260504004440 8 205 0.0 0.0 0.00 0.00 0.00 46 1014.4
20260504003937 8 205 0.0 0.0 0.00 0.00 0.00 50 1014.4
20260504003433 9 193 0.0 0.0 0.00 0.00 0.00 50 1014.5
20260504002930 10 49 0.0 1.6 0.00 0.00 0.00 44 1014.4
20260504002427 10 58 0.0 0.0 0.00 0.00 0.00 42 1014.5
20260504001924 10 91 0.0 1.6 0.00 0.00 0.00 45 1014.4
20260504001422 10 96 0.0 0.0 0.00 0.00 0.00 41 1014.5
20260504000918 10 96 0.0 1.6 0.00 0.00 0.00 41 1014.4
20260504000416 10 108 1.6 3.2 0.00 0.00 0.00 41 1014.7
20260503235912 10 53 0.0 1.6 0.00 0.00 0.00 41 1014.5
20260503235410 10 68 1.6 3.2 0.00 0.00 0.00 40 1014.6
20260503234908 10 86 3.2 4.8 0.00 0.00 0.00 41 1014.6
20260503234405 10 88 0.0 3.2 0.00 0.00 0.00 41 1014.9
20260503233903 10 87 1.6 4.8 0.00 0.00 0.00 40 1014.6
20260503233359 10 54 1.6 4.8 0.00 0.00 0.00 41 1014.7
20260503232855 10 82 6.4 9.7 0.00 0.00 0.00 40 1014.6
20260503232353 11 352 1.6 4.8 0.00 0.00 0.00 40 1014.7
20260503231850 11 79 3.2 4.8 0.00 0.00 0.00 41 1014.7
20260503231347 11 120 1.6 6.4 0.00 0.00 0.00 39 1014.8
20260503230843 11 146 0.0 6.4 0.00 0.00 0.00 40 1014.6
20260503230340 11 49 3.2 3.2 0.00 0.00 0.00 42 1014.7
20260503225838 11 24 1.6 9.7 0.00 0.00 0.00 43 1014.8
20260503225333 11 62 6.4 6.4 0.00 0.00 0.00 39 1014.7
20260503224830 11 289 3.2 4.8 0.00 0.00 0.00 39 1014.7
20260503224327 11 65 4.8 4.8 0.00 0.00 0.00 38 1014.8
20260503223825 12 8 3.2 9.7 0.00 0.00 0.00 37 1014.7
20260503223323 12 26 3.2 4.8 0.00 0.00 0.00 37 1014.7
20260503222818 12 15 1.6 9.7 0.00 0.00 0.00 38 1014.9
20260503222317 12 65 3.2 6.4 0.00 0.00 0.00 38 1014.7
20260503221814 13 59 3.2 6.4 0.00 0.00 0.00 37 1014.8
20260503221313 13 92 4.8 6.4 0.00 0.00 0.00 33 1014.7
20260503220808 12 111 6.4 9.7 0.00 0.00 0.00 35 1014.5
20260503220306 13 16 3.2 12.9 0.00 0.00 0.00 36 1014.7
20260503215802 12 30 4.8 9.7 0.00 0.00 0.00 35 1014.8
20260503215259 12 5 4.8 9.7 0.00 0.00 0.00 36 1014.5
20260503214757 12 49 1.6 4.8 0.00 0.00 0.00 35 1014.5
20260503214254 11 56 4.8 12.9 0.00 0.00 0.00 36 1014.6
20260503213752 12 95 4.8 11.3 0.00 0.00 0.00 36 1014.6
20260503213249 12 100 1.6 6.4 0.00 0.00 0.00 34 1014.7
20260503212746 12 62 6.4 9.7 0.00 0.00 0.00 38 1014.8
20260503212243 13 101 6.4 9.7 0.00 0.00 0.00 33 1014.8
20260503211741 13 61 3.2 6.4 0.00 0.00 0.00 40 1014.7
20260503211237 12 142 3.2 6.4 0.00 0.00 0.00 37 1014.7
20260503210732 12 95 3.2 4.8 0.00 0.00 0.00 38 1014.6
20260503210230 12 108 1.6 6.4 0.00 0.00 0.00 39 1014.8
20260503205725 12 122 6.4 11.3 0.00 0.00 0.00 36 1014.8
20260503205221 12 273 0.0 4.8 0.00 0.00 0.00 36 1014.9
20260503204718 12 103 4.8 6.4 0.00 0.00 0.00 36 1015.2
20260503204216 12 53 4.8 14.5 0.00 0.00 0.00 37 1014.9
20260503203713 12 92 6.4 9.7 0.00 0.00 0.00 34 1015.2
20260503203211 12 29 6.4 11.3 0.00 0.00 0.00 34 1015.3
20260503202708 12 82 6.4 14.5 0.00 0.00 0.00 36 1015.1
20260503202206 12 103 14.5 16.1 0.00 0.00 0.00 37 1015.2
20260503201703 11 125 12.9 16.1 0.00 0.00 0.00 39 1015.3
20260503201200 12 19 8.0 11.3 0.00 0.00 0.00 38 1015.6
20260503200656 12 144 1.6 11.3 0.00 0.00 0.00 39 1015.4
20260503200153 12 308 3.2 11.3 0.00 0.00 0.00 36 1015.8
20260503195650 12 117 8.0 16.1 0.00 0.00 0.00 39 1015.7
20260503195147 11 106 6.4 11.3 0.00 0.00 0.00 37 1015.7
20260503194644 11 97 6.4 12.9 0.00 0.00 0.00 36 1015.8
20260503194139 11 128 6.4 11.3 0.00 0.00 0.00 41 1016.1
20260503193637 11 145 3.2 9.7 0.00 0.00 0.00 37 1016.1
20260503193132 11 79 12.9 17.7 0.00 0.00 0.00 40 1016.0
20260503192628 11 45 8.0 16.1 0.00 0.00 0.00 35 1016.2
20260503192123 11 135 4.8 14.5 0.00 0.00 0.00 39 1016.3
20260503191621 11 80 6.4 16.1 0.00 0.00 0.00 37 1016.3
20260503191117 11 96 6.4 9.7 0.00 0.00 0.00 41 1016.3
20260503190615 11 208 0.0 11.3 0.00 0.00 0.00 45 1016.4
20260503190111 11 105 4.8 6.4 0.00 0.00 0.00 39 1016.5
20260503185608 10 110 6.4 9.7 0.00 0.00 0.00 36 1016.7
20260503185108 10 126 4.8 11.3 0.00 0.00 0.00 43 1016.8
20260503184604 10 128 6.4 12.9 0.00 0.00 0.00 38 1016.7
20260503184100 11 128 3.2 12.9 0.00 0.00 0.00 38 1016.5
20260503183557 10 80 6.4 16.1 0.00 0.00 0.00 37 1016.6
20260503183054 10 171 4.8 11.3 0.00 0.00 0.00 37 1016.5
20260503182553 10 112 3.2 6.4 0.00 0.00 0.00 35 1016.7
20260503182050 10 171 3.2 4.8 0.00 0.00 0.00 44 1016.7
20260503181547 10 292 3.2 4.8 0.00 0.00 0.00 38 1016.6
20260503181044 10 119 3.2 17.7 0.00 0.00 0.00 46 1016.7
20260503180541 10 16 9.7 11.3 0.00 0.00 0.00 35 1016.8
20260503180038 10 73 4.8 4.8 0.00 0.00 0.00 40 1017.1
20260503175535 9 9 4.8 11.3 0.00 0.00 0.00 38 1016.9
20260503175032 9 288 4.8 9.7 0.00 0.00 0.00 39 1017.3
20260503174530 9 64 8.0 11.3 0.00 0.00 0.00 39 1017.4
20260503174026 10 65 6.4 12.9 0.00 0.00 0.00 38 1017.2
20260503173521 9 104 3.2 6.4 0.00 0.00 0.00 41 1017.3
20260503173017 9 160 8.0 9.7 0.00 0.00 0.00 41 1017.5
20260503172515 8 116 6.4 14.5 0.00 0.00 0.00 46 1017.7
20260503172012 10 105 8.0 12.9 0.00 0.00 0.00 40 1017.3
20260503171508 8 112 0.0 3.2 0.00 0.00 0.00 43 1017.5
20260503171006 8 11 9.7 14.5 0.00 0.00 0.00 41 1017.5
20260503170502 8 63 9.7 12.9 0.00 0.00 0.00 43 1017.6
20260503150854 6 129 4.8 6.4 0.00 0.00 0.00 52 1018.2
20260503150350 6 101 6.4 11.3 0.00 0.00 0.00 44 1018.6
20260503140315 5 98 3.2 9.7 0.00 0.00 0.00 55 1018.6
20260503131244 3 69 3.2 12.9 0.00 0.00 0.00 71 1018.0
20260503130742 3 86 1.6 4.8 0.00 0.00 0.00 72 1017.9
20260503130239 3 127 4.8 4.8 0.00 0.00 0.00 72 1017.9
20260503120205 2 201 0.0 0.0 0.00 0.00 0.00 83 1017.5
20260503110632 -2 295 0.0 0.0 0.00 0.00 0.00 97 1016.6
20260503110130 -2 283 0.0 0.0 0.00 0.00 0.00 97 1016.6
20260503081445 -2 267 0.0 0.0 0.00 0.00 0.00 92 1015.3
20260503080943 -1 265 0.0 0.0 0.00 0.00 0.00 92 1015.2
20260503080439 -1 236 0.0 0.0 0.00 0.00 0.00 91 1015.4
20260503072915 -1 232 0.0 0.0 0.00 0.00 0.00 88 1015.0
20260503072413 0 218 0.0 0.0 0.00 0.00 0.00 87 1015.1
20260503071909 0 128 0.0 0.0 0.00 0.00 0.00 85 1015.0
20260503071407 0 118 0.0 3.2 0.00 0.00 0.00 83 1015.0
20260503070902 0 127 1.6 3.2 0.00 0.00 0.00 85 1015.1
20260503070400 0 102 0.0 0.0 0.00 0.00 0.00 85 1015.1
20260503060326 1 109 1.6 3.2 0.00 0.00 0.00 78 1015.0
20260503054814 2 129 3.2 6.4 0.00 0.00 0.00 76 1015.1
20260503054309 2 166 1.6 3.2 0.00 0.00 0.00 78 1014.8
20260503053807 2 106 6.4 6.4 0.00 0.00 0.00 76 1015.0
20260503053306 2 134 1.6 6.4 0.00 0.00 0.00 77 1015.0
20260503052802 2 156 1.6 3.2 0.00 0.00 0.00 78 1015.0
20260503052259 2 141 1.6 4.8 0.00 0.00 0.00 76 1014.9
20260503051754 2 132 4.8 6.4 0.00 0.00 0.00 76 1014.9
20260503051251 2 150 4.8 9.7 0.00 0.00 0.00 75 1014.9
20260503050748 2 152 1.6 9.7 0.00 0.00 0.00 76 1015.0
20260503050244 2 113 3.2 6.4 0.00 0.00 0.00 76 1014.8
20260503045742 2 128 4.8 6.4 0.00 0.00 0.00 76 1015.0
20260503045234 2 128 3.2 9.7 0.00 0.00 0.00 75 1015.0
20260503044729 2 112 6.4 9.7 0.00 0.00 0.00 74 1015.1
20260503044227 2 147 9.7 12.9 0.00 0.00 0.00 73 1014.8
20260503043724 2 123 8.0 14.5 0.00 0.00 0.00 73 1014.7
20260503043221 2 112 9.7 12.9 0.00 0.00 0.00 74 1014.9
20260503042717 2 113 6.4 9.7 0.00 0.00 0.00 74 1014.8
20260503042214 2 130 4.8 4.8 0.00 0.00 0.00 74 1014.6
20260503041710 -17 0.0 0.0 0.00 0.00 0.00 1014.6
20260503041208 3 132 3.2 4.8 0.00 0.00 0.00 73 1014.7
20260503040705 3 132 3.2 4.8 0.00 0.00 0.00 73 1014.8
20260503040202 2 115 8.0 11.3 0.00 0.00 0.00 73 1014.6
20260503035659 3 106 4.8 4.8 0.00 0.00 0.00 73 1014.9
20260503035156 3 104 9.7 12.9 0.00 0.00 0.00 72 1014.8
20260503034654 3 124 6.4 6.4 0.00 0.00 0.00 72 1014.8
20260503034151 3 114 6.4 6.4 0.00 0.00 0.00 71 1014.7